Погода Купино

Погода Купино : погода сейчас, прогноз погоды и архив. Всё, что Вы хотите узнать о погоде Купино!

Хотите узнать прогноз погоды Купино? Тогда Вам сюда: Погода Купино

Поиск расширенной информации на нашем сайте:

Другие новости

Новости СМИ2

Главная страница сайта

Новости сайта

03.07.2017

Напоминаем, что на нашем специализированном сайте Метеоцентр.Азия вы можете получить высокодетализированные автоматические прогнозы погоды по пунктам России, СНГ и мира в авиационном формате (включающие направление и скорость ветра, видимость, явления погоды, количество и форму облачности, нижнюю и верхнюю границу облачности).


Погода Купино - сегодня

Время (UTC), дата Ветер
(°,м/с) 
Видим.   Явления Облачность Т
(°С)
Тd
(°С)
f(%) Тe
(°С)
Pmin
(гПа)
dP
(гПа)
Po
(мм)
O2
(г/м3)
Тmin Tmax R s Состояние
почвы
09 20.02.18 210 (ЮЗ) 20000 м    6/0 верхняя 
[Ci fib]
-10.7 -14.6 73 -14  1034.9  -1.3  765  322           
12 20.02.18 170 (Ю) 20000 м    3/0 верхняя 
[Ci fib]
-12.1 -15.1 78 -14  1033.1  -1.8  763  323    -10.3       
15 20.02.18 150 (ЮВ) 20000 м    ясно 
-14.7 -17.2 81 -15  1032.3  -1  763  326           
18 20.02.18 160 (Ю) 20000 м    ясно 
-15.4 -17.8 82 -18  1030.1  -2.2  761  326           
21 20.02.18 140 (ЮВ) 20000 м    ясно 
-16.9 -19.1 83 -21  1028.3  -1.8  760  328           
00 21.02.18 150 (ЮВ) 20000 м    ясно 
-15.9 -18.3 82 -20  1026.8  -1.5  758  326  -16.9      20  неравномерный
сухой снег
100% 
03 21.02.18 140 (ЮВ) 20000 м    10/10 1000 м 
[Sc]
-13.3 -16.6 76 -19  1024.8  -1.7  757  322           
06 21.02.18 140 (ЮВ) 20000 м    10/0 средняя 
[As op]
-10.6 -15.3 68 -15  1022.7  -1.9  756  318           
09 21.02.18 150 (ЮВ) 20000 м    10/0 верхняя 
[Ci sp]
-8.3 -13.5 66 -13  1020  -2.6  754  314           
12 21.02.18 140 (ЮВ) 7-10{10}  20000 м    10/0 средняя, верхняя 
[Ac As|Ci sp]
-7.5 -12.6 67 -13  1016.9  -3  752  313    -7       
15 21.02.18 150 (ЮВ) 6{11}  20000 м    10/0 средняя 
[As op]
-7 -12 67 -12  1014.5  -2.3  750  311           
18 21.02.18 160 (Ю) 20000 м    10/10 600 м 
[Sc]
-6.2 -10.5 72 -10  1011.7  -2.8  748  309           
21 21.02.18 180 (Ю) 10 км  слаб. ливневой снег  10/10 600 м кучево-дожд. 
[Cb calv]
-6.8 -9.3 82 -9  1010.6  -1.1  747  310           
00 22.02.18 230 (ЮЗ) 20000 м  {ливн. осадки}  10/10 600 м кучево-дожд. 
[Cb calv]
-6.3 -7.4 92 -10  1010.7  0.1  747  309  -7.8    0.7  20  неравномерный
сухой снег
100% 
09 22.02.18 270 (З) 7{12}  20000 м  позёмок  ясно 
-9.6 -12.6 79 -15  1020  2.5  754  316           
12 22.02.18 260 (З) 6{10}  20000 м    ясно 
-10.6 -13.5 79 -16  1022  755  318    -6.1       
15 22.02.18 230 (ЮЗ) 20000 м    ясно 
-12.9 -15.3 82 -18  1023.2  0.9  756  321           
18 22.02.18 210 (ЮЗ) 20000 м    ясно 
-14.8 -16.8 85 -20  1023.1  -0.2  756  323           
21 22.02.18 210 (ЮЗ) 20000 м    10/10 600 м 
[Sc]
-14.3 -16.3 85 -20  1022.1  -0.9  755  322           
00 23.02.18 220 (ЮЗ) 20000 м    10/10 600 м 
[Sc]
-13.5 -15.6 84 -19  1021.7  -0.4  755  321  -15.1      20  неравномерный
сухой снег
100% 
03 23.02.18 240 (ЮЗ) 20000 м  {ливн. осадки}  10/3 600 м средняя, верхняя 
[Sc|Ac cast|Ci fib]
-14.3 -16.4 84 -20  1022.4  0.7  755  323           
09 23.02.18 240 (ЮЗ) 20000 м    10/0 верхняя 
[Ci fib]
-12.2 -15.4 77 -18  1023.1  0.2  756  320           
12 23.02.18 230 (ЮЗ) 20000 м    10/0 средняя, верхняя 
[Ac As|Ci sp]
-14.2 -16.7 81 -18  1023.4  0.2  756  323    -11.8  0.0     
15 23.02.18 230 (ЮЗ) 20000 м    6/0 верхняя 
[Ci fib]
-17.2 -19.1 85 -20  1023.3  -0.3  756  327           
18 23.02.18 230 (ЮЗ) 20000 м    9/0 средняя 
[Ac trans]
-18.6 -20.7 83 -21  1023.1  -0.3  756  328           
Время (UTC), дата Ветер
(°,м/с) 
Видим.   Явления Облачность Т
(°С)
Тd
(°С)
f(%) Тe
(°С)
Pmin
(гПа)
dP
(гПа)
Po
(мм)
O2
(г/м3)
Тmin Tmax R s Состояние
почвы

Для получения пояснительной информации подведите курсор к названию столбца.

ПОГОДА Купино - архив

Всё, что Вы хотите узнать о погоде Купино - удобно и подробно!

Выберите нужную дату (начиная с 1 января 2015* года) и нажмите кнопку "Найти".
Будут отображены архивные сводки погоды по пункту Купино, начиная с указанной даты.


Отображать данные в формате CSV (для использования в таблицах Excel)


Внимание! Наш архив погоды предназначен исключительно для личного некоммерческого использования в познавательных целях. Если Вам необходимы официальные справки о состоянии погоды (для производственных, юридических, коммерческих и т.п. целей), обращайтесь в органы Росгидромета.

*Примечание: данная дата относится к архиву по метеостанциям СССР (Россия, СНГ, Балтия).
Архив по метеостанциям Зарубежной Европы и Азии (кроме Китая) хранится 10 дней, по другим регионам земного шара (Китай, Африка, Америка, Австралия, Океания) - 1 день.

Купино - район местоположения метеостанции


Название, широта, долгота, высота метеостанции:
Купино 54.4°ш. 77.3°д. 115 м над ур. моря [Российская Федерация]

Дополнительная информация

В oтличие oт бoльшинства пoгoдных сайтoв мы публикуем пoдрoбную метеoинфoрмацию в детальнoм прoфессиoнальнoм фoрмате.

Характеристики температуры и влажнoсти вoздуха измеряются на высoте 2 м в тени вдали oт зданий и деревьев.
Скoрoсть ветра измеряется на высoте 10 м (на урoвне рoста челoвека скoрoсть ветра ниже в 1.5-2 раза). Если метеoстанция нахoдится в гoрoде или в лесу, тo скoрoсть ветра занижена на 2-4 м/с пo сравнению с oткрытым местoм. Скoрoсть ветра над акватoриями крупных рек и oзёр, а также на вершинах хoлмoв на 2-5 м/с выше, чем в oбычных услoвиях.
Атмoсфернoе давление в разных тoчках местнoсти мoжет значительнo oтличаться oт давления на метеoстанции, в зависимoсти oт услoвий рельефа (при пoдъёме на 10 м давление пoнижается примернo на 1 мм рт.ст.).